[[{"header":{"parameterUnit":"m.s-1","parameterCategory":1,"la1":30.2991,"la2":30.254,"lo1":-89.0895,"lo2":-89.0444,"dy":0.0017,"dx":0.0017,"nx":28,"ny":28,"refTime":"2023-04-30T15:00:00:Z","depth":0,"parameterNumber":2,"parameterNumberName":"U-component_of_WINDS"},"data":[0,0,0,0,0,0,0,0,0,0,0,0,0,0,0,0,0,0,0,0,0,0,0,0,0,0,0,0,0,0,0,0,0,0,0,0,0,0,0,0,0,0,0,0,0,0,0,0,0,0,0,0,0,0,0,0,0,0,5.5881,5.5882,0,5.5983,5.5984,5.5985,5.5967,5.5965,5.5964,5.5962,5.6069,5.6073,5.6077,0,0,0,0,0,0,0,0,0,0,0,0,0,5.5673,5.5677,5.5881,5.5882,5.5883,5.5983,5.5984,5.5986,5.5968,5.5965,5.5963,5.5961,5.6067,5.6072,5.6078,0,0,0,0,0,0,0,0,0,0,0,0,0,5.5768,5.5678,5.588,5.5886,5.5888,5.5983,5.5984,5.5986,5.5968,5.5965,5.5963,5.596,5.6065,5.6072,5.6079,5.6175,0,0,5.6099,5.6102,0,0,0,0,0,0,0,0,5.5763,5.5776,5.5884,5.5886,5.5888,5.596,5.595,5.6049,5.5969,5.5938,5.5962,5.5959,5.6035,5.6044,5.6069,5.618,5.6185,5.61,5.6104,5.6107,5.6109,0,0,0,0,0,0,0,5.5756,5.5771,5.5921,5.5886,5.5888,5.5885,5.5895,5.5969,5.6,5.594,5.5939,5.5951,5.6035,5.6063,5.6071,5.6186,5.61,5.6106,5.611,5.6113,5.6385,5.6388,0,0,0,0,0,0,5.5747,5.5766,5.5918,5.5924,5.5817,5.5891,5.5902,5.5939,5.5999,5.6006,5.5953,5.595,5.6052,5.6063,5.6075,5.6195,5.6107,5.6113,5.6117,5.6382,5.6386,5.6389,0,0,0,0,0,0,5.5743,5.5761,5.5914,5.5845,5.5864,5.5897,5.5939,5.5943,5.597,5.6009,5.6015,5.5975,5.6051,5.6066,5.6151,5.6198,5.6116,5.6123,5.6378,5.6383,5.6388,5.6432,0,0,0,0,0,0,5.5737,5.576,5.5796,5.5846,5.5868,5.5987,5.5941,5.5947,5.5982,5.5978,5.6032,5.6038,5.605,5.6141,5.6158,5.6206,5.6128,5.6374,5.6381,5.6386,5.6427,5.6438,5.6448,0,0,0,0,0,5.573,5.5804,5.5797,5.5816,5.5913,5.599,5.6002,5.6014,5.5985,5.6023,5.6049,5.6036,5.619,5.615,5.6169,5.6219,5.6372,5.6379,5.6386,5.6422,5.6436,5.6447,0,0,0,0,0,0,5.5758,5.581,5.5804,5.5896,5.5939,5.5986,5.6033,5.6027,5.6079,5.6074,5.6086,5.6099,5.6186,5.6211,5.6166,5.6318,5.6277,5.6288,5.6298,5.6312,5.6322,5.6315,5.6134,0,0,0,0,0,5.5775,5.5831,5.5874,5.5951,5.5973,5.6,5.6033,5.6039,5.6084,5.6102,5.6134,5.6178,5.6237,5.6275,5.6331,5.643,5.6443,5.6475,5.6485,5.6493,5.6503,5.6561,5.6576,5.6413,5.6413,5.6413,0,0,5.581,5.5846,5.5881,5.5958,5.5992,5.6052,5.6015,5.6079,5.6125,5.6112,5.6195,5.622,5.6271,5.6365,5.6408,5.6388,5.6551,5.6502,5.6509,5.6514,5.657,5.6585,5.6599,5.6418,5.6417,5.6416,0,0,5.5906,5.5937,5.6007,5.6042,5.6093,5.6111,5.6128,5.6177,5.6194,5.6277,5.627,5.6324,5.6424,5.6462,5.6494,5.6608,5.66,5.6626,5.668,5.6736,5.6749,5.6761,5.6804,5.6819,5.6635,5.6635,5.6635,0,5.5943,5.6033,5.6043,5.6109,5.6145,5.6136,5.6208,5.6241,5.6309,5.6334,5.6311,5.6439,5.6472,5.6576,5.6604,5.663,5.6652,5.662,5.6746,5.6758,5.6769,5.681,5.6826,5.6638,5.6638,5.6638,5.6637,0,5.6078,5.6141,5.619,5.6257,5.6298,5.6366,5.6389,5.6429,5.6432,5.6452,5.654,5.658,5.6645,5.667,5.6673,5.6776,5.6762,5.6743,5.6702,5.6787,5.6827,5.6842,5.6643,5.6642,5.6641,5.664,0,0,5.6194,5.6266,5.6284,5.6316,5.6373,5.6422,5.6492,5.6556,5.6592,5.6639,5.6699,5.6786,5.6769,5.6806,5.6813,5.6862,5.6953,5.6837,5.6838,5.6859,5.7072,5.7088,5.7106,5.6947,5.695,5.6953,5.7069,0,5.6297,5.6418,5.6431,5.6541,5.66,5.6594,5.6655,5.6698,5.672,5.6775,5.6799,5.6861,5.6833,5.6855,5.6903,5.6931,5.6996,5.6923,5.7006,5.7009,5.6995,5.7126,5.7142,5.725,5.7084,5.7087,5.7088,0,5.6433,5.6485,5.6601,5.6653,5.6679,5.6733,5.6795,5.6846,5.6896,5.6909,5.6951,5.6952,5.7026,5.6983,5.7086,5.7036,5.7071,5.709,5.7095,5.7104,5.7055,5.7141,5.7284,5.7301,5.7112,5.711,5.7109,0,5.6509,5.6608,5.6691,5.6718,5.678,5.6819,5.6847,5.6894,5.6932,5.6986,5.7012,5.7074,5.7108,5.7157,5.7176,5.7142,5.728,5.7237,5.7295,5.7295,5.7325,5.7324,5.7478,5.7344,5.7344,5.7344,5.7344,0,5.6624,5.6696,5.6727,5.6778,5.6859,5.6874,5.6954,5.698,5.7023,5.708,5.7078,5.7133,5.7154,5.7212,5.7228,5.7313,5.7328,5.7342,5.7346,5.7344,5.7342,5.7368,5.7361,5.7348,5.7347,5.7346,5.7346,0,5.6723,5.6746,5.6837,5.6889,5.6904,5.6961,5.7007,5.7058,5.7079,5.7152,5.717,5.7205,5.7274,5.7298,5.7381,5.7392,5.7492,5.7488,5.7475,5.7477,5.7534,5.753,5.7712,5.7738,5.7585,5.7587,5.7588,0,5.6796,5.6851,5.6909,5.6948,5.6978,5.7039,5.7079,5.7096,5.7138,5.7201,5.7245,5.7313,5.7369,5.748,5.7514,5.7579,5.7578,5.7637,5.7588,5.7585,5.7582,5.7579,5.7586,5.7647,5.7649,5.765,5.7651,0,5.6924,5.6933,5.699,5.7053,5.71,5.715,5.7199,5.723,5.7255,5.7303,5.7374,5.7417,5.7503,5.7573,5.7639,5.767,5.7666,5.7666,5.7684,5.7683,5.7675,5.7683,5.7503,5.7662,5.7661,5.7661,5.766,5.7659,5.7014,5.7064,5.7113,5.7178,5.7216,5.7262,5.7313,5.7342,5.7401,5.7473,5.7479,5.7556,5.7608,5.7697,5.7731,5.7793,5.7776,5.7801,5.7807,5.7814,5.7819,5.7663,5.7805,5.7804,5.7804,5.7804,5.7804,0,5.7144,5.7176,5.7235,5.7303,5.7355,5.7346,5.74,5.7444,5.7512,5.7559,5.7615,5.7698,5.7766,5.7805,5.7874,5.7916,5.7916,5.7934,5.7932,5.794,5.7829,5.7808,5.7933,5.7933,5.7933,5.7933,5.7933,5.7932,5.7218,5.7303,5.7319,5.7424,5.7456,5.7531,5.7563,5.7606,5.7645,5.7737,5.7794,5.7819,5.7864,5.7936,5.7999,5.8009,5.8036,5.8055,5.8064,5.796,5.7947,5.7934,5.7915,5.806,5.806,5.817,5.8171,5.8172]},{"header":{"parameterUnit":"m.s-1","parameterCategory":1,"la1":30.2991,"la2":30.254,"lo1":-89.0895,"lo2":-89.0444,"dy":0.0017,"dx":0.0017,"nx":28,"ny":28,"refTime":"2023-04-30T15:00:00:Z","depth":0,"parameterNumber":3,"parameterNumberName":"V-component_of_WINDS"},"data":[0,0,0,0,0,0,0,0,0,0,0,0,0,0,0,0,0,0,0,0,0,0,0,0,0,0,0,0,0,0,0,0,0,0,0,0,0,0,0,0,0,0,0,0,0,0,0,0,0,0,0,0,0,0,0,0,0,0,-1.9172,-1.9172,0,-1.9186,-1.9186,-1.9186,-1.922,-1.922,-1.9221,-1.9222,-1.9232,-1.9232,-1.9231,0,0,0,0,0,0,0,0,0,0,0,0,0,-1.9171,-1.9171,-1.9171,-1.9172,-1.9172,-1.9186,-1.9186,-1.9186,-1.922,-1.922,-1.9221,-1.9222,-1.9232,-1.9232,-1.9231,0,0,0,0,0,0,0,0,0,0,0,0,0,-1.9177,-1.9171,-1.9171,-1.919,-1.9192,-1.9186,-1.9186,-1.9186,-1.9219,-1.9221,-1.9222,-1.9223,-1.9232,-1.9232,-1.9231,-1.9206,0,0,-1.9229,-1.9229,0,0,0,0,0,0,0,0,-1.9176,-1.9177,-1.9187,-1.9189,-1.9191,-1.9202,-1.919,-1.9193,-1.9219,-1.9209,-1.9222,-1.9223,-1.9221,-1.9221,-1.9222,-1.9207,-1.9207,-1.9229,-1.9229,-1.9229,-1.9229,0,0,0,0,0,0,0,-1.9176,-1.9176,-1.9177,-1.9188,-1.919,-1.9197,-1.9199,-1.919,-1.9209,-1.921,-1.9212,-1.9214,-1.9222,-1.9222,-1.9222,-1.9207,-1.9229,-1.9229,-1.9228,-1.9228,-1.9175,-1.9174,0,0,0,0,0,0,-1.9173,-1.9176,-1.9177,-1.9177,-1.9186,-1.9197,-1.9199,-1.9197,-1.9209,-1.9212,-1.9213,-1.9215,-1.9222,-1.9223,-1.9222,-1.9196,-1.9229,-1.9228,-1.9228,-1.9176,-1.9175,-1.9174,0,0,0,0,0,0,-1.9173,-1.9173,-1.9176,-1.9177,-1.9178,-1.9196,-1.9194,-1.9197,-1.9197,-1.9211,-1.9214,-1.921,-1.9223,-1.9223,-1.9211,-1.9196,-1.9228,-1.9227,-1.9177,-1.9176,-1.9174,-1.9141,0,0,0,0,0,0,-1.9173,-1.9173,-1.9164,-1.9177,-1.9178,-1.9165,-1.9193,-1.9197,-1.9197,-1.92,-1.9209,-1.9211,-1.9224,-1.9212,-1.921,-1.9196,-1.9227,-1.9179,-1.9177,-1.9175,-1.9143,-1.9138,-1.9134,0,0,0,0,0,-1.9173,-1.9152,-1.9163,-1.9163,-1.9167,-1.9164,-1.9164,-1.9181,-1.9195,-1.9186,-1.9196,-1.9211,-1.9198,-1.921,-1.9209,-1.9194,-1.918,-1.9177,-1.9175,-1.9145,-1.9139,-1.9134,0,0,0,0,0,0,-1.9135,-1.9154,-1.9166,-1.915,-1.9155,-1.9169,-1.9158,-1.9173,-1.9173,-1.9176,-1.9195,-1.9197,-1.9182,-1.9187,-1.92,-1.9172,-1.9192,-1.9189,-1.9169,-1.9164,-1.9159,-1.9158,-1.9226,0,0,0,0,0,-1.9125,-1.9121,-1.9138,-1.9121,-1.9124,-1.9141,-1.9139,-1.9152,-1.9158,-1.916,-1.9168,-1.9172,-1.9169,-1.9167,-1.9165,-1.9144,-1.9147,-1.9134,-1.9129,-1.9125,-1.9123,-1.9114,-1.9109,-1.9166,-1.9166,-1.9166,0,0,-1.9103,-1.9113,-1.9109,-1.9114,-1.912,-1.9115,-1.9142,-1.9135,-1.9132,-1.9158,-1.9148,-1.9154,-1.916,-1.9144,-1.9137,-1.9148,-1.9108,-1.9122,-1.9119,-1.9119,-1.9111,-1.9106,-1.9101,-1.9164,-1.9165,-1.9165,0,0,-1.9062,-1.9069,-1.9057,-1.9063,-1.9072,-1.9084,-1.9081,-1.9094,-1.91,-1.909,-1.9111,-1.9107,-1.9101,-1.9105,-1.9106,-1.907,-1.9085,-1.9069,-1.9044,-1.9036,-1.9031,-1.9027,-1.9016,-1.9011,-1.9066,-1.9066,-1.9066,0,-1.9033,-1.9028,-1.9048,-1.9042,-1.9044,-1.9069,-1.9058,-1.9062,-1.9069,-1.907,-1.9081,-1.9077,-1.9082,-1.9069,-1.9061,-1.906,-1.9058,-1.9067,-1.9031,-1.9027,-1.9024,-1.9013,-1.9008,-1.9064,-1.9064,-1.9064,-1.9064,0,-1.8994,-1.899,-1.8979,-1.8988,-1.8989,-1.8979,-1.8998,-1.8996,-1.901,-1.902,-1.9011,-1.9019,-1.902,-1.9018,-1.9029,-1.9007,-1.9013,-1.9027,-1.9047,-1.9016,-1.9006,-1.9002,-1.9061,-1.9062,-1.9062,-1.9063,0,0,-1.8927,-1.895,-1.8945,-1.8951,-1.8964,-1.8961,-1.8954,-1.8957,-1.8956,-1.896,-1.8955,-1.8951,-1.8965,-1.8967,-1.8979,-1.8972,-1.8945,-1.8987,-1.8988,-1.898,-1.8922,-1.8912,-1.8906,-1.8955,-1.8954,-1.8953,-1.8922,0,-1.8889,-1.8879,-1.8898,-1.8882,-1.888,-1.8906,-1.89,-1.8907,-1.8917,-1.8916,-1.8927,-1.8925,-1.8943,-1.8945,-1.8939,-1.8949,-1.8933,-1.8952,-1.895,-1.8949,-1.8948,-1.8901,-1.8889,-1.8859,-1.8918,-1.8917,-1.8917,0,-1.8843,-1.8849,-1.8834,-1.8851,-1.885,-1.8844,-1.885,-1.8849,-1.8858,-1.8866,-1.887,-1.8886,-1.888,-1.89,-1.8892,-1.8904,-1.8904,-1.891,-1.8909,-1.8909,-1.8931,-1.8901,-1.8849,-1.8845,-1.8911,-1.8911,-1.8912,0,-1.8798,-1.8801,-1.8793,-1.8797,-1.8816,-1.8811,-1.8819,-1.8829,-1.8831,-1.8836,-1.8837,-1.884,-1.8842,-1.8844,-1.8861,-1.8874,-1.8852,-1.8872,-1.8858,-1.8858,-1.8852,-1.8852,-1.8801,-1.8851,-1.8852,-1.8852,-1.8852,0,-1.8754,-1.8744,-1.8773,-1.8768,-1.8759,-1.8781,-1.877,-1.878,-1.879,-1.8788,-1.8809,-1.8806,-1.8829,-1.8828,-1.8841,-1.8833,-1.8833,-1.884,-1.8844,-1.8839,-1.8838,-1.8839,-1.8842,-1.885,-1.8851,-1.8851,-1.8851,0,-1.8701,-1.872,-1.8714,-1.8733,-1.8738,-1.873,-1.8747,-1.8743,-1.8756,-1.8753,-1.8753,-1.8773,-1.8774,-1.8791,-1.8794,-1.8803,-1.8791,-1.8798,-1.8788,-1.8791,-1.8776,-1.8778,-1.8724,-1.8719,-1.8772,-1.8771,-1.8771,0,-1.8672,-1.8665,-1.8685,-1.8686,-1.8693,-1.8694,-1.8697,-1.8719,-1.8721,-1.8733,-1.8728,-1.8731,-1.8735,-1.8735,-1.8749,-1.8752,-1.876,-1.8741,-1.8761,-1.8757,-1.8761,-1.8762,-1.8762,-1.8737,-1.8736,-1.8736,-1.8735,0,-1.8619,-1.8629,-1.8633,-1.8641,-1.8644,-1.865,-1.8658,-1.8657,-1.8682,-1.8683,-1.8685,-1.8688,-1.8694,-1.8697,-1.8704,-1.8711,-1.8727,-1.873,-1.8727,-1.8721,-1.8717,-1.872,-1.8778,-1.873,-1.8731,-1.8731,-1.8732,-1.8732,-1.8578,-1.8574,-1.8588,-1.8592,-1.8601,-1.8609,-1.8607,-1.8621,-1.8624,-1.8632,-1.8644,-1.8645,-1.8657,-1.8668,-1.8674,-1.8675,-1.8684,-1.868,-1.8679,-1.8678,-1.8676,-1.8717,-1.8676,-1.8676,-1.8676,-1.8676,-1.8677,0,-1.8527,-1.8538,-1.8542,-1.8553,-1.8557,-1.8574,-1.8584,-1.8586,-1.8587,-1.8597,-1.8601,-1.8605,-1.8609,-1.8624,-1.863,-1.8628,-1.8636,-1.8629,-1.8629,-1.8631,-1.8666,-1.8668,-1.8622,-1.8622,-1.8622,-1.8622,-1.8622,-1.8622,-1.8501,-1.8496,-1.8509,-1.851,-1.8521,-1.8523,-1.8528,-1.8535,-1.8544,-1.8548,-1.8552,-1.8563,-1.8575,-1.8583,-1.8587,-1.8592,-1.8593,-1.8584,-1.8591,-1.8623,-1.8628,-1.8633,-1.8636,-1.8584,-1.8584,-1.8556,-1.8556,-1.8556]}]]